SKUNK1 KJWN-

Flight info

Callsign SKUNK1
Flight time N/A
Altitude VFR/055
Route VFR NW
Aircraft T38/L-DOV/C

Departure

Time 2026-04-26 20:03
Airport John C Tune Airport (KJWN)

Arrival

Time N/A
Airport -
Time Latitude Longitude Altitude Speed Heading
2026-04-26 19:58 36.17944 -86.88504 475 ft 0 kts 110°
2026-04-26 19:59 36.17941 -86.88495 475 ft 3 kts 113°
2026-04-26 19:59 36.17928 -86.88488 473 ft 2 kts 256°
2026-04-26 19:59 36.17947 -86.88507 476 ft 6 kts
2026-04-26 20:00 36.17989 -86.88501 474 ft 9 kts 333°
2026-04-26 20:00 36.18014 -86.88571 477 ft 10 kts 283°
2026-04-26 20:00 36.17958 -86.88623 477 ft 14 kts 193°
2026-04-26 20:00 36.17866 -86.88653 474 ft 15 kts 194°
2026-04-26 20:01 36.17751 -86.88690 473 ft 17 kts 195°
2026-04-26 20:01 36.17636 -86.88727 472 ft 17 kts 194°
2026-04-26 20:01 36.17528 -86.88762 470 ft 9 kts 195°
2026-04-26 20:01 36.17495 -86.88797 469 ft 2 kts 263°
2026-04-26 20:02 36.17494 -86.88810 469 ft 0 kts 274°
2026-04-26 20:02 36.17504 -86.88860 468 ft 11 kts 285°
2026-04-26 20:02 36.17571 -86.88888 471 ft 27 kts 15°
2026-04-26 20:02 36.17857 -86.88795 478 ft 98 kts 14°
2026-04-26 20:03 36.19195 -86.88373 617 ft 186 kts 15°
2026-04-26 20:03 36.20332 -86.88056 2269 ft 161 kts 15°
2026-04-26 20:03 36.21517 -86.87932 3668 ft 189 kts 349°
2026-04-26 20:03 36.22718 -86.88873 4806 ft 228 kts 299°
2026-04-26 20:04 36.23092 -86.91007 5555 ft 295 kts 268°
2026-04-26 20:04 36.22655 -86.93657 5643 ft 331 kts 257°
2026-04-26 20:04 36.22358 -86.96548 5627 ft 354 kts 272°
2026-04-26 20:04 36.22782 -86.99620 5595 ft 369 kts 288°
2026-04-26 20:05 36.23862 -87.02555 5619 ft 379 kts 301°
2026-04-26 20:05 36.25418 -87.05255 5557 ft 391 kts 311°
2026-04-26 20:05 36.27379 -87.07643 5537 ft 399 kts 320°
2026-04-26 20:05 36.29513 -87.09891 5492 ft 405 kts 321°
2026-04-26 20:06 36.31687 -87.12153 5455 ft 407 kts 320°
2026-04-26 20:06 36.33869 -87.14426 5393 ft 409 kts 321°
2026-04-26 20:06 36.36021 -87.16678 5394 ft 409 kts 321°
2026-04-26 20:06 36.38191 -87.18948 5430 ft 406 kts 321°
2026-04-26 20:07 36.40360 -87.21222 5430 ft 406 kts 320°
2026-04-26 20:07 36.42486 -87.23500 5564 ft 401 kts 319°
2026-04-26 20:07 36.44595 -87.25766 5596 ft 400 kts 320°
2026-04-26 20:07 36.46741 -87.27994 5571 ft 401 kts 321°
2026-04-26 20:08 36.48895 -87.30209 5561 ft 401 kts 321°
2026-04-26 20:08 36.51021 -87.32409 5513 ft 403 kts 320°
2026-04-26 20:08 36.53154 -87.34676 5493 ft 403 kts 319°
2026-04-26 20:08 36.55060 -87.37213 5484 ft 403 kts 303°
2026-04-26 20:09 36.56315 -87.40339 5375 ft 404 kts 289°
2026-04-26 20:09 36.56990 -87.43677 5636 ft 396 kts 278°
2026-04-26 20:09 36.57258 -87.47083 5678 ft 396 kts 272°
2026-04-26 20:09 36.57361 -87.50505 5762 ft 395 kts 271°
2026-04-26 20:10 36.57410 -87.53942 5690 ft 398 kts 270°
2026-04-26 20:10 36.57360 -87.57384 5644 ft 396 kts 253°
2026-04-26 20:10 36.55935 -87.60263 5805 ft 392 kts 234°
2026-04-26 20:10 36.54359 -87.62996 7560 ft 408 kts 232°
2026-04-26 20:11 36.53540 -87.66480 7614 ft 442 kts 265°
2026-04-26 20:11 36.53309 -87.70202 7960 ft 420 kts 264°
2026-04-26 20:11 36.53071 -87.73780 8046 ft 412 kts 264°
2026-04-26 20:12 36.55594 -87.78490 8069 ft 450 kts 355°
2026-04-26 20:12 36.57439 -87.76698 7161 ft 451 kts 130°
2026-04-26 20:12 36.55038 -87.77807 6835 ft 494 kts 251°
2026-04-26 20:12 36.53114 -87.81078 7000 ft 510 kts 166°
2026-04-26 20:13 36.51266 -87.77756 5177 ft 552 kts 155°
2026-04-26 20:13 36.49342 -87.79691 8599 ft 459 kts 290°
2026-04-26 20:13 36.49271 -87.79909 4628 ft 217 kts 125°
2026-04-26 20:13 36.48210 -87.78047 4810 ft 301 kts 123°
2026-04-26 20:14 36.49315 -87.76793 5147 ft 304 kts 353°
2026-04-26 20:14 36.51365 -87.77150 7035 ft 321 kts 353°
2026-04-26 20:14 36.53733 -87.77517 7807 ft 370 kts 353°
2026-04-26 20:14 36.56497 -87.77973 7947 ft 417 kts 346°
2026-04-26 20:15 36.58957 -87.79766 7909 ft 405 kts 327°
2026-04-26 20:15 36.61277 -87.81710 7862 ft 404 kts 311°
2026-04-26 20:15 36.62584 -87.84934 7931 ft 436 kts 294°
2026-04-26 20:15 36.63869 -87.88537 7892 ft 469 kts 293°
2026-04-26 20:16 36.65939 -87.91570 7852 ft 469 kts 329°
2026-04-26 20:16 36.68730 -87.93636 8039 ft 474 kts 329°
2026-04-26 20:16 36.71635 -87.93920 8151 ft 473 kts 58°
2026-04-26 20:16 36.73588 -87.90438 8128 ft 517 kts 49°
2026-04-26 20:17 36.75797 -87.91575 6524 ft 502 kts 243°
2026-04-26 20:17 36.74003 -87.94730 8392 ft 436 kts 300°
2026-04-26 20:17 36.75954 -87.93821 6721 ft 462 kts 102°
2026-04-26 20:17 36.75337 -87.91260 7078 ft 484 kts 107°
2026-04-26 20:18 36.73688 -87.85616 7021 ft 533 kts 136°
2026-04-26 20:18 36.70539 -87.84796 7982 ft 427 kts 175°
2026-04-26 20:18 36.67470 -87.84484 8142 ft 452 kts 175°
2026-04-26 20:18 36.64253 -87.84086 8057 ft 474 kts 173°
2026-04-26 20:19 36.62545 -87.81691 7941 ft 459 kts 72°
2026-04-26 20:19 36.64943 -87.80362 7878 ft 463 kts 315°
2026-04-26 20:19 36.65590 -87.84241 7897 ft 487 kts 271°
2026-04-26 20:19 36.65651 -87.88494 7908 ft 494 kts 269°
2026-04-26 20:20 36.64618 -87.92280 7840 ft 487 kts 194°
2026-04-26 20:20 36.61164 -87.92020 8186 ft 521 kts 169°
2026-04-26 20:20 36.58257 -87.89669 8222 ft 475 kts 152°
2026-04-26 20:20 36.55417 -87.88257 8398 ft 433 kts 176°
2026-04-26 20:21 36.52484 -87.88744 8334 ft 456 kts 222°
2026-04-26 20:21 36.50646 -87.92289 7911 ft 513 kts 230°
2026-04-26 20:21 36.48392 -87.90839 7838 ft 476 kts 130°
2026-04-26 20:21 36.45927 -87.88327 7327 ft 448 kts 129°
2026-04-26 20:22 36.45461 -87.85180 6992 ft 436 kts 112°
2026-04-26 20:22 36.44221 -87.86111 5014 ft 378 kts 311°
2026-04-26 20:22 36.46158 -87.88532 5255 ft 402 kts 348°
2026-04-26 20:22 36.47877 -87.86778 4647 ft 334 kts 340°
2026-04-26 20:23 36.49525 -87.86352 3532 ft 362 kts 77°
2026-04-26 20:23 36.47893 -87.84253 2056 ft 383 kts 125°
2026-04-26 20:23 36.47682 -87.81051 3527 ft 371 kts 48°
2026-04-26 20:23 36.50004 -87.80838 4344 ft 369 kts 351°
2026-04-26 20:24 36.52728 -87.81401 5159 ft 428 kts 353°
2026-04-26 20:24 36.55838 -87.81853 6237 ft 461 kts 355°
2026-04-26 20:24 36.59281 -87.82112 6068 ft 531 kts
2026-04-26 20:24 36.63031 -87.81882 5564 ft 487 kts
2026-04-26 20:25 36.65760 -87.82642 5510 ft 355 kts 346°
2026-04-26 20:25 36.67408 -87.83389 5323 ft 386 kts 340°
2026-04-26 20:25 36.70758 -87.84875 5535 ft 386 kts 341°
2026-04-26 20:25 36.73304 -87.86008 5536 ft 390 kts 341°
2026-04-26 20:26 36.75877 -87.87110 5487 ft 393 kts 343°
2026-04-26 20:26 36.78508 -87.88064 5638 ft 395 kts 348°
2026-04-26 20:26 36.81204 -87.88110 6049 ft 406 kts 29°
2026-04-26 20:26 36.83571 -87.85810 5765 ft 450 kts 46°
2026-04-26 20:27 36.85627 -87.82938 5332 ft 433 kts 49°
2026-04-26 20:27 36.87621 -87.80147 4712 ft 426 kts 50°
2026-04-26 20:27 36.89151 -87.77170 4252 ft 402 kts 70°
2026-04-26 20:27 36.89581 -87.73845 3979 ft 379 kts 93°
2026-04-26 20:28 36.89068 -87.70686 3723 ft 365 kts 107°
2026-04-26 20:28 36.88334 -87.67709 3676 ft 354 kts 107°
2026-04-26 20:28 36.87617 -87.64786 3519 ft 347 kts 107°
2026-04-26 20:28 36.86917 -87.61917 3490 ft 344 kts 107°
2026-04-26 20:29 36.86219 -87.59020 3486 ft 354 kts 107°
2026-04-26 20:29 36.85508 -87.56016 3484 ft 365 kts 106°
2026-04-26 20:29 36.84782 -87.52943 3502 ft 373 kts 106°
2026-04-26 20:29 36.83821 -87.49926 3421 ft 376 kts 118°
2026-04-26 20:30 36.82279 -87.47253 3084 ft 382 kts 133°
2026-04-26 20:30 36.80249 -87.45124 2792 ft 382 kts 144°
2026-04-26 20:30 36.78033 -87.43263 2289 ft 385 kts 148°
2026-04-26 20:30 36.75509 -87.42550 2207 ft 374 kts 188°
2026-04-26 20:31 36.73117 -87.43724 2127 ft 367 kts 202°
2026-04-26 20:31 36.70816 -87.45051 2112 ft 360 kts 208°
2026-04-26 20:31 36.68905 -87.47031 2126 ft 357 kts 224°
2026-04-26 20:31 36.67966 -87.49524 1985 ft 332 kts 312°
2026-04-26 20:32 36.69638 -87.49188 1742 ft 271 kts 48°
2026-04-26 20:32 36.70774 -87.47504 1680 ft 218 kts 83°
2026-04-26 20:32 36.70431 -87.46570 1500 ft 175 kts 151°
2026-04-26 20:32 36.69304 -87.46786 1053 ft 172 kts 205°
2026-04-26 20:33 36.68445 -87.47733 604 ft 151 kts 222°
2026-04-26 20:33 36.67741 -87.48589 579 ft 165 kts 222°
2026-04-26 20:33 36.66611 -87.49939 663 ft 290 kts 222°
2026-04-26 20:33 36.64986 -87.50531 3110 ft 264 kts 161°
2026-04-26 20:34 36.63309 -87.49778 5587 ft 300 kts 155°
2026-04-26 20:34 36.61547 -87.48067 5575 ft 339 kts 129°
2026-04-26 20:34 36.59991 -87.45749 5502 ft 356 kts 130°
2026-04-26 20:34 36.58361 -87.43402 5478 ft 366 kts 131°
2026-04-26 20:35 36.56640 -87.41016 5482 ft 374 kts 131°
2026-04-26 20:35 36.55031 -87.38427 5493 ft 379 kts 126°
2026-04-26 20:35 36.53456 -87.35773 5504 ft 381 kts 127°
2026-04-26 20:35 36.51879 -87.33113 5501 ft 383 kts 126°
2026-04-26 20:36 36.50288 -87.30459 5486 ft 383 kts 127°
2026-04-26 20:36 36.48686 -87.27805 5480 ft 382 kts 126°
2026-04-26 20:36 36.47098 -87.25116 5483 ft 380 kts 126°
2026-04-26 20:36 36.45518 -87.22468 5459 ft 381 kts 126°
2026-04-26 20:37 36.43924 -87.19840 5439 ft 381 kts 126°
2026-04-26 20:37 36.42327 -87.17212 5451 ft 380 kts 126°
2026-04-26 20:37 36.40742 -87.14618 5442 ft 381 kts 127°
2026-04-26 20:37 36.39133 -87.11978 5464 ft 383 kts 126°
2026-04-26 20:38 36.37521 -87.09326 5457 ft 386 kts 126°
2026-04-26 20:38 36.35890 -87.06679 5477 ft 385 kts 127°
2026-04-26 20:38 36.34269 -87.04036 5473 ft 382 kts 126°
2026-04-26 20:38 36.32652 -87.01373 5488 ft 379 kts 126°
2026-04-26 20:39 36.31080 -86.98756 5483 ft 377 kts 126°
2026-04-26 20:39 36.29541 -86.96176 5482 ft 376 kts 126°
2026-04-26 20:39 36.27994 -86.93567 5514 ft 373 kts 125°
2026-04-26 20:39 36.26467 -86.90957 5495 ft 373 kts 125°
2026-04-26 20:40 36.24964 -86.88366 4399 ft 369 kts 125°
2026-04-26 20:40 36.23328 -86.85553 1978 ft 406 kts 124°
2026-04-26 20:40 36.21711 -86.82762 2366 ft 385 kts 124°
2026-04-26 20:40 36.20169 -86.80164 2844 ft 368 kts 126°
2026-04-26 20:41 36.18712 -86.77599 3062 ft 362 kts 118°
2026-04-26 20:41 36.17858 -86.74667 2928 ft 364 kts 101°
2026-04-26 20:41 36.17527 -86.71500 2833 ft 367 kts 95°
2026-04-26 20:41 36.17044 -86.68369 2171 ft 372 kts 122°
2026-04-26 20:42 36.14860 -86.67571 2015 ft 351 kts 194°
2026-04-26 20:42 36.12614 -86.67841 2005 ft 308 kts 125°
2026-04-26 20:42 36.13495 -86.66368 1695 ft 261 kts 11°
2026-04-26 20:42 36.15100 -86.66500 1497 ft 197 kts 303°
2026-04-26 20:43 36.14717 -86.67613 981 ft 163 kts 187°
2026-04-26 20:43 36.13683 -86.67913 571 ft 135 kts 194°
2026-04-26 20:43 36.12918 -86.68207 577 ft 99 kts 197°
2026-04-26 20:43 36.12346 -86.68415 577 ft 77 kts 196°
2026-04-26 20:44 36.12020 -86.68542 592 ft 25 kts 198°
2026-04-26 20:44 36.11861 -86.68601 597 ft 21 kts 196°
2026-04-26 20:44 36.11773 -86.68595 599 ft 6 kts 117°
2026-04-26 20:44 36.11753 -86.68540 599 ft 5 kts 117°
2026-04-26 20:45 36.11748 -86.68533 598 ft 0 kts 141°
2026-04-26 20:45 36.11746 -86.68531 598 ft 0 kts 155°
2026-04-26 20:46 36.11728 -86.68524 598 ft 8 kts 160°
2026-04-26 20:46 36.11638 -86.68477 589 ft 21 kts 155°
2026-04-26 20:46 36.11510 -86.68394 579 ft 18 kts 151°
2026-04-26 20:47 36.11406 -86.68326 580 ft 15 kts 152°
2026-04-26 20:47 36.11338 -86.68283 579 ft 16 kts 152°
2026-04-26 20:47 36.11209 -86.68197 581 ft 12 kts 152°
2026-04-26 20:47 36.11154 -86.68108 584 ft 15 kts 97°
2026-04-26 20:48 36.11135 -86.67956 584 ft 18 kts 99°
2026-04-26 20:48 36.11118 -86.67833 583 ft 11 kts 105°
2026-04-26 20:48 36.11071 -86.67779 584 ft 1 kts 112°
2026-04-26 20:48 36.11095 -86.67748 583 ft 5 kts 35°
2026-04-26 20:49 36.11096 -86.67746 583 ft 0 kts 35°